Time,TemperatureF,DewpointF,PressureIn,WindDirection,WindDirectionDegrees,WindSpeedMPH,WindSpeedGustMPH,Humidity,HourlyPrecipIn,Conditions,Clouds,dailyrainin,SoftwareType,DateUTC
2013-08-12 00:07:00,82.9,49.1,29.67,NNW,337,7.8,-999.0,31,-99.99,,,0.00,Acu-Link.com,2013-08-12 07:07:00,
2013-08-12 00:23:00,82.4,49.6,29.66,NNE,22,7.3,-999.0,32,-99.99,,,0.00,Acu-Link.com,2013-08-12 07:23:00,
2013-08-12 00:38:00,81.7,49.8,29.66,WNW,292,6.3,-999.0,33,-99.99,,,0.00,Acu-Link.com,2013-08-12 07:38:00,
2013-08-12 00:53:00,81.7,49.8,29.66,WSW,247,7.8,-999.0,33,-99.99,,,0.00,Acu-Link.com,2013-08-12 07:53:00,
2013-08-12 01:08:00,82.2,48.5,29.67,SW,225,8.9,-999.0,31,-99.99,,,0.00,Acu-Link.com,2013-08-12 08:08:00,
2013-08-12 01:24:00,82.2,49.4,29.67,North,0,6.3,-999.0,32,-99.99,,,0.00,Acu-Link.com,2013-08-12 08:24:00,
2013-08-12 01:39:00,81.3,49.4,29.67,WNW,292,11.9,-999.0,33,-99.99,,,0.00,Acu-Link.com,2013-08-12 08:39:00,
2013-08-12 01:54:00,81.1,49.2,29.67,East,90,9.9,-999.0,33,-99.99,,,0.00,Acu-Link.com,2013-08-12 08:54:00,
2013-08-12 02:09:00,80.8,49.8,29.66,West,270,7.3,-999.0,34,-99.99,,,0.00,Acu-Link.com,2013-08-12 09:09:00,
2013-08-12 02:25:00,80.4,50.2,29.66,NNW,337,8.3,-999.0,35,-99.99,,,0.00,Acu-Link.com,2013-08-12 09:25:00,
2013-08-12 02:40:00,80.2,50.0,29.66,West,270,6.3,-999.0,35,-99.99,,,0.00,Acu-Link.com,2013-08-12 09:40:00,
2013-08-12 02:55:00,80.1,50.0,29.66,West,270,9.9,-999.0,35,-99.99,,,0.00,Acu-Link.com,2013-08-12 09:55:00,
2013-08-12 03:10:00,79.9,49.8,29.65,West,270,9.4,-999.0,35,-99.99,,,0.00,Acu-Link.com,2013-08-12 10:10:00,
2013-08-12 03:25:00,80.1,49.2,29.65,West,270,8.3,-999.0,34,-99.99,,,0.00,Acu-Link.com,2013-08-12 10:25:00,
2013-08-12 03:41:00,79.2,49.2,29.65,West,270,8.9,-999.0,35,-99.99,,,0.00,Acu-Link.com,2013-08-12 10:41:00,
2013-08-12 03:56:00,79.7,49.6,29.65,WSW,247,9.9,-999.0,35,-99.99,,,0.00,Acu-Link.com,2013-08-12 10:56:00,
2013-08-12 04:11:00,80.1,49.2,29.66,West,270,4.2,-999.0,34,-99.99,,,0.00,Acu-Link.com,2013-08-12 11:11:00,
2013-08-12 04:26:00,80.1,49.2,29.65,West,270,6.3,-999.0,34,-99.99,,,0.00,Acu-Link.com,2013-08-12 11:26:00,
2013-08-12 04:41:00,80.1,49.2,29.66,WSW,247,13.0,-999.0,34,-99.99,,,0.00,Acu-Link.com,2013-08-12 11:41:00,
2013-08-12 04:56:00,80.1,49.2,29.66,WSW,247,12.5,-999.0,34,-99.99,,,0.00,Acu-Link.com,2013-08-12 11:56:00,
2013-08-12 05:12:00,79.9,49.0,29.65,SSW,202,6.8,-999.0,34,-99.99,,,0.00,Acu-Link.com,2013-08-12 12:12:00,
2013-08-12 05:27:00,79.7,48.8,29.66,West,270,9.4,-999.0,34,-99.99,,,0.00,Acu-Link.com,2013-08-12 12:27:00,
2013-08-12 05:42:00,79.3,48.5,29.67,NNW,337,7.3,-999.0,34,-99.99,,,0.00,Acu-Link.com,2013-08-12 12:42:00,
2013-08-12 05:57:00,79.3,48.5,29.68,West,270,9.4,-999.0,34,-99.99,,,0.00,Acu-Link.com,2013-08-12 12:57:00,
2013-08-12 06:12:00,79.3,48.5,29.68,West,270,10.4,-999.0,34,-99.99,,,0.00,Acu-Link.com,2013-08-12 13:12:00,
2013-08-12 06:27:00,79.7,48.0,29.69,WSW,247,11.4,-999.0,33,-99.99,,,0.00,Acu-Link.com,2013-08-12 13:27:00,
2013-08-12 06:42:00,80.1,47.6,29.69,North,0,6.8,-999.0,32,-99.99,,,0.00,Acu-Link.com,2013-08-12 13:42:00,
2013-08-12 06:57:00,80.8,47.3,29.69,West,270,9.4,-999.0,31,-99.99,,,0.00,Acu-Link.com,2013-08-12 13:57:00,
2013-08-12 07:13:00,81.9,47.4,29.69,West,270,8.3,-999.0,30,-99.99,,,0.00,Acu-Link.com,2013-08-12 14:13:00,
2013-08-12 07:28:00,82.2,47.7,29.69,WSW,247,10.9,-999.0,30,-99.99,,,0.00,Acu-Link.com,2013-08-12 14:28:00,
2013-08-12 07:43:00,83.3,46.8,29.69,NNE,22,6.8,-999.0,28,-99.99,,,0.00,Acu-Link.com,2013-08-12 14:43:00,
2013-08-12 07:58:00,84.6,47.9,29.70,SSW,202,7.3,-999.0,28,-99.99,,,0.00,Acu-Link.com,2013-08-12 14:58:00,
2013-08-12 08:13:00,86.0,46.1,29.70,SW,225,7.3,-999.0,25,-99.99,,,0.00,Acu-Link.com,2013-08-12 15:13:00,
2013-08-12 08:29:00,87.4,47.2,29.69,WNW,292,10.4,-999.0,25,-99.99,,,0.00,Acu-Link.com,2013-08-12 15:29:00,
2013-08-12 08:44:00,88.5,45.9,29.71,WNW,292,11.4,-999.0,23,-99.99,,,0.00,Acu-Link.com,2013-08-12 15:44:00,
2013-08-12 08:59:00,89.4,45.5,29.71,WNW,292,7.3,-999.0,22,-99.99,,,0.00,Acu-Link.com,2013-08-12 15:59:00,
2013-08-12 09:14:00,90.5,45.2,29.70,NNW,337,4.7,-999.0,21,-99.99,,,0.00,Acu-Link.com,2013-08-12 16:14:00,
2013-08-12 09:29:00,91.9,43.7,29.71,West,270,7.8,-999.0,19,-99.99,,,0.00,Acu-Link.com,2013-08-12 16:29:00,
2013-08-12 09:44:00,93.2,41.9,29.72,West,270,8.3,-999.0,17,-99.99,,,0.00,Acu-Link.com,2013-08-12 16:44:00,
2013-08-12 09:59:00,94.8,41.6,29.72,NNW,337,6.8,-999.0,16,-99.99,,,0.00,Acu-Link.com,2013-08-12 16:59:00,
2013-08-12 10:14:00,95.9,39.0,29.72,West,270,6.3,-999.0,14,-99.99,,,0.00,Acu-Link.com,2013-08-12 17:14:00,
2013-08-12 10:30:00,97.3,38.2,29.72,NNW,337,5.3,-999.0,13,-99.99,,,0.00,Acu-Link.com,2013-08-12 17:30:00,
2013-08-12 10:45:00,98.8,35.1,29.73,NW,315,4.2,-999.0,11,-99.99,,,0.00,Acu-Link.com,2013-08-12 17:45:00,
2013-08-12 11:00:00,99.7,33.4,29.71,WSW,247,3.2,-999.0,10,-99.99,,,0.00,Acu-Link.com,2013-08-12 18:00:00,
2013-08-12 11:15:00,101.7,34.9,29.72,West,270,4.7,-999.0,10,-99.99,,,0.00,Acu-Link.com,2013-08-12 18:15:00,
2013-08-12 11:31:00,102.7,33.0,29.71,South,180,2.7,-999.0,9,-99.99,,,0.00,Acu-Link.com,2013-08-12 18:31:00,
2013-08-12 11:46:00,102.7,35.7,29.71,South,180,3.2,-999.0,10,-99.99,,,0.00,Acu-Link.com,2013-08-12 18:46:00,
2013-08-12 12:01:00,104.4,34.3,29.70,West,270,1.1,-999.0,9,-99.99,,,0.00,Acu-Link.com,2013-08-12 19:01:00,
2013-08-12 12:17:00,101.8,32.4,29.70,West,270,1.1,-999.0,9,-99.99,,,0.00,Acu-Link.com,2013-08-12 19:17:00,
2013-08-12 12:32:00,104.2,31.2,29.69,South,180,2.7,-999.0,8,-99.99,,,0.00,Acu-Link.com,2013-08-12 19:32:00,
2013-08-12 12:48:00,104.2,34.1,29.70,South,180,2.2,-999.0,9,-99.99,,,0.00,Acu-Link.com,2013-08-12 19:48:00,
2013-08-12 13:03:00,106.0,29.2,29.69,South,180,2.7,-999.0,7,-99.99,,,0.00,Acu-Link.com,2013-08-12 20:03:00,
2013-08-12 13:18:00,105.8,38.0,29.68,West,270,0.0,-999.0,10,-99.99,,,0.00,Acu-Link.com,2013-08-12 20:18:00,
2013-08-12 13:33:00,105.4,35.0,29.68,NNW,337,2.7,-999.0,9,-99.99,,,0.00,Acu-Link.com,2013-08-12 20:33:00,
2013-08-12 13:48:00,105.4,35.0,29.67,South,180,0.0,-999.0,9,-99.99,,,0.00,Acu-Link.com,2013-08-12 20:48:00,
2013-08-12 14:03:00,107.2,30.1,29.67,NE,45,1.7,-999.0,7,-99.99,,,0.00,Acu-Link.com,2013-08-12 21:03:00,
2013-08-12 14:19:00,109.2,34.8,29.66,ENE,67,2.2,-999.0,8,-99.99,,,0.00,Acu-Link.com,2013-08-12 21:19:00,
2013-08-12 14:34:00,107.8,33.8,29.65,WNW,292,2.7,-999.0,8,-99.99,,,0.00,Acu-Link.com,2013-08-12 21:34:00,
2013-08-12 15:05:00,107.2,30.1,29.65,SW,225,6.3,-999.0,7,-99.99,,,0.00,Acu-Link.com,2013-08-12 22:05:00,
2013-08-12 15:20:00,106.7,33.0,29.64,NNW,337,5.3,-999.0,8,-99.99,,,0.00,Acu-Link.com,2013-08-12 22:20:00,
2013-08-12 15:35:00,106.9,29.9,29.63,West,270,7.3,-999.0,7,-99.99,,,0.00,Acu-Link.com,2013-08-12 22:35:00,
2013-08-12 15:50:00,107.1,30.0,29.62,West,270,8.3,-999.0,7,-99.99,,,0.00,Acu-Link.com,2013-08-12 22:50:00,
2013-08-12 16:06:00,106.0,29.2,29.63,South,180,4.2,-999.0,7,-99.99,,,0.00,Acu-Link.com,2013-08-12 23:06:00,
2013-08-12 16:21:00,106.3,29.4,29.63,West,270,8.9,-999.0,7,-99.99,,,0.00,Acu-Link.com,2013-08-12 23:21:00,
2013-08-12 16:36:00,105.6,28.9,29.62,West,270,9.4,-999.0,7,-99.99,,,0.00,Acu-Link.com,2013-08-12 23:36:00,
2013-08-12 16:51:00,105.8,32.4,29.61,WNW,292,6.8,-999.0,8,-99.99,,,0.00,Acu-Link.com,2013-08-12 23:51:00,
2013-08-12 17:06:00,104.5,31.4,29.61,NE,45,8.3,-999.0,8,-99.99,,,0.00,Acu-Link.com,2013-08-13 00:06:00,
2013-08-12 17:21:00,105.1,34.8,29.61,WNW,292,9.4,-999.0,9,-99.99,,,0.00,Acu-Link.com,2013-08-13 00:21:00,
2013-08-12 17:36:00,105.1,34.8,29.62,West,270,6.8,-999.0,9,-99.99,,,0.00,Acu-Link.com,2013-08-13 00:36:00,
2013-08-12 17:52:00,104.5,34.4,29.61,West,270,10.9,-999.0,9,-99.99,,,0.00,Acu-Link.com,2013-08-13 00:52:00,
2013-08-12 18:07:00,103.3,36.1,29.60,SSE,157,11.9,-999.0,10,-99.99,,,0.00,Acu-Link.com,2013-08-13 01:07:00,
2013-08-12 18:22:00,102.2,35.3,29.61,NW,315,8.3,-999.0,10,-99.99,,,0.00,Acu-Link.com,2013-08-13 01:22:00,
2013-08-12 18:38:00,100.4,38.5,29.60,WNW,292,8.9,-999.0,12,-99.99,,,0.00,Acu-Link.com,2013-08-13 01:38:00,
2013-08-12 18:53:00,99.5,41.8,29.61,West,270,8.9,-999.0,14,-99.99,,,0.00,Acu-Link.com,2013-08-13 01:53:00,
2013-08-12 19:08:00,98.6,42.9,29.61,WNW,292,7.8,-999.0,15,-99.99,,,0.00,Acu-Link.com,2013-08-13 02:08:00,
2013-08-12 19:23:00,96.8,44.7,29.61,West,270,6.3,-999.0,17,-99.99,,,0.00,Acu-Link.com,2013-08-13 02:23:00,
2013-08-12 19:38:00,95.9,45.5,29.62,West,270,9.9,-999.0,18,-99.99,,,0.00,Acu-Link.com,2013-08-13 02:38:00,
2013-08-12 19:53:00,95.0,44.8,29.62,North,0,13.5,-999.0,18,-99.99,,,0.00,Acu-Link.com,2013-08-13 02:53:00,
2013-08-12 20:08:00,94.1,46.9,29.63,West,270,7.3,-999.0,20,-99.99,,,0.00,Acu-Link.com,2013-08-13 03:08:00,
2013-08-12 20:23:00,93.7,47.8,29.63,West,270,8.9,-999.0,21,-99.99,,,0.00,Acu-Link.com,2013-08-13 03:23:00,
2013-08-12 20:39:00,93.2,47.4,29.64,NNW,337,12.5,-999.0,21,-99.99,,,0.00,Acu-Link.com,2013-08-13 03:39:00,
2013-08-12 20:54:00,92.7,47.0,29.64,WNW,292,16.6,-999.0,21,-99.99,,,0.00,Acu-Link.com,2013-08-13 03:54:00,
2013-08-12 21:09:00,92.5,48.1,29.65,West,270,14.5,-999.0,22,-99.99,,,0.00,Acu-Link.com,2013-08-13 04:09:00,
2013-08-12 21:24:00,91.8,47.5,29.65,WNW,292,9.9,-999.0,22,-99.99,,,0.00,Acu-Link.com,2013-08-13 04:24:00,
2013-08-12 21:39:00,91.0,49.2,29.65,NNW,337,9.4,-999.0,24,-99.99,,,0.00,Acu-Link.com,2013-08-13 04:39:00,
2013-08-12 21:54:00,90.0,49.4,29.66,West,270,6.3,-999.0,25,-99.99,,,0.00,Acu-Link.com,2013-08-13 04:54:00,
2013-08-12 22:09:00,88.3,51.0,29.65,WNW,292,11.9,-999.0,28,-99.99,,,0.00,Acu-Link.com,2013-08-13 05:09:00,
2013-08-12 22:24:00,88.9,50.6,29.66,WNW,292,9.4,-999.0,27,-99.99,,,0.00,Acu-Link.com,2013-08-13 05:24:00,
2013-08-12 22:39:00,87.4,52.1,29.66,WNW,292,8.3,-999.0,30,-99.99,,,0.00,Acu-Link.com,2013-08-13 05:39:00,
2013-08-12 22:54:00,87.4,51.2,29.66,West,270,7.8,-999.0,29,-99.99,,,0.00,Acu-Link.com,2013-08-13 05:54:00,
2013-08-12 23:09:00,87.3,52.0,29.67,NNW,337,7.3,-999.0,30,-99.99,,,0.00,Acu-Link.com,2013-08-13 06:09:00,
2013-08-12 23:25:00,86.4,52.2,29.69,West,270,6.8,-999.0,31,-99.99,,,0.00,Acu-Link.com,2013-08-13 06:25:00,
2013-08-12 23:40:00,87.3,49.2,29.68,WNW,292,6.3,-999.0,27,-99.99,,,0.00,Acu-Link.com,2013-08-13 06:40:00,
2013-08-12 23:55:00,85.6,50.6,29.68,West,270,7.8,-999.0,30,-99.99,,,0.00,Acu-Link.com,2013-08-13 06:55:00,